OBJECT AA, 47437

Orbit data source: Space-Track

You're viewing an Uncataloged Satellite

Recently launched and/or uncataloged satellites may have evolving metadata. Metadata may include but not limited to: Owner, Maufacturer, Bus, Motor, and Mission.

OBJECT AA, 47437 is a satellite in SSO that was launched on Sun, 24 Jan 2021 UTC launched from the Air Force Eastern Test Range (AFETR). Unknown objects in Earth's orbit typically refer to objects detected orbiting the Earth but have not yet been identified or cataloged. These objects could be anything from previously untracked satellites, spent rocket stages, debris from satellite collisions, or even natural meteoroids temporarily captured by Earth's gravity.

Loading next visibility...
Identifier
47437, 2021-006AA
Orbit
SSO
Country
Flag of TBDTBD
Related business
Manufacturer
SpaceX/Seattle
Mission
Spacecraft
Bus & Motor
Unknown
Mass
~100 kg wet, ~100 kg dry
Launch date (UTC)
2021-01-24 (5 years ago)
Launch vehicle
Unknown
Launch site
Air Force Eastern Test Range (AFETR)
Object type
Unknown
Shape & HBR
Cyl, Unknown HBR
Radar Cross Section
0.110 m², Medium (>0.1 m² and < 1m²)

Expand to show TLE details & history
Last TLE update: 5 hours ago

TLE from 5 hours ago
0 OBJECT AA
1 47437U 21006AA  26126.95656218  .00004389  00000-0  15069-3 0  9991
2 47437  97.2271 168.9578 0008485   2.7025 357.4261 15.30614112293017
Epoch: 2026-05-06T22:57Z
TLE epoch observation values (Epoch: 2026-05-06T22:57:26.972Z)
Latitude
0.00002°
Longitude
-40.2142°
Altitude
471.279 km
Speed
7.634 km/s
True Right ascension
11h 15m 49s
True Declination
0° 00' 00"
Sunlit
Object was in full shadow at epoch
Visualization orbit readout
Latitude
Unknown
Longitude
Unknown
Altitude
Unknown
Speed
Unknown
Apparent Right ascension
Unknown
Apparent Declination
Unknown
Sunlit
N/A
Visualization observer readout
Local Sidereal Time
12:15:23
Azimuth
Unknown
Elevation
Unknown
Doppler factor
Unknown
Orbital elements
Apogee altitude
476.734 km
Perigee altitude
465.112 km
Semi-major axis
6,849.06 km
Eccentricity
0.00085
Inclination
97.2271°
RAAN
168.9578°
Arg. of periapsis
2.7025°
True anomaly
357.42173°
Mean anomaly
357.4261°
Eccentric anomaly
357.42391°
Mean motion
3.8291 °/min
Orbital period
94.02 mins
BSTAR
0.00015069
Loading maneuver chart data...
Computing Atmospheric mass density...

Documentation

Showing up to 5 results
|